logo
Rechercher aéroport 
image banner adimage banner adimage banner ad
image banner ad

1IA5 - Sch

Situé à Nevada, United States

ICAO - 1IA5, IATA -

Données fournies par Airmate  

Information générale

Coordonnées: N42°1'3" W93°27'11"
Élévation : 995 feet MSL.
Variation magnétique : 04° East
Voir autres Aéroports à Iowa

Données opérationnelles

Special qualification required
Heure actuelle UTC:
Heure actuelle locale:
Météo à : KAMW - Ames Muni ( 14 km )
METAR: KAMW 261553Z AUTO 31015G24KT 10SM CLR 18/03 A3012 RMK AO2 SLP195 T01780033
Voir NOTAMs / SUP AIP / TFR affectant cet aéroport [VIEW]
Fréquences de communication: [VIEW]

Pistes:

Coordonnées de l'aéroport

Adresse: Nevada United States

Vue satellite de 1IA5